Regional Weather Roundup
Issued by NWS Mt. Holly, NJ

Home | Current Version | Previous Version | Text Only | Print | Product List | Glossary On
Versions: 1 2 3 4 5 6 7 8 9 10 11 12 13 14 15 16 17 18 19 20 21 22 23 24 25 26 27
000
ASUS41 KPHI 190510
RWRPHI

REGIONAL WEATHER ROUNDUP
NATIONAL WEATHER SERVICE MOUNT HOLLY NJ
100 AM EDT SAT APR 19 2014

NOTE:  "FAIR" INDICATES FEW OR NO CLOUDS BELOW 12,000 FEET WITH NO
SIGNIFICANT WEATHER AND/OR OBSTRUCTIONS TO VISIBILITY.

 * = STATION DOES NOT REPORT PRECIPITATION (E.G. RAIN, SNOW, ETC.)
        OR FOG.

NJZ015>026-190600-
SOUTHERN NEW JERSEY

CITY           SKY/WX    TMP DP  RH WIND       PRES   REMARKS
POMONA         CLOUDY    38  34  85 CALM      30.27F
RIO GRANDE*    CLOUDY    41  36  81 SW5       30.30R
MILLVILLE      CLOUDY    39  36  89 CALM      30.28F
WRIGHTSTOWN    CLOUDY    38  34  87 SW2       30.26F
MOUNT HOLLY    CLOUDY    39  35  86 CALM      30.28F
TRENTON        CLOUDY    39  34  82 S3        30.27S

$$
NJZ001>014-190600-
NORTHERN NEW JERSEY

CITY           SKY/WX    TMP DP  RH WIND       PRES   REMARKS
SUSSEX         MOCLDY    42  31  64 SW5       30.24F
ANDOVER*         N/A     40  33  76 CALM      30.25R
MORRISTOWN     CLOUDY    43  34  70 CALM      30.28R
NEWARK         CLOUDY    40  33  76 SW6       30.28F
TETERBORO      CLOUDY    43  33  68 SW3       30.27R
CALDWELL       CLOUDY    41  31  67 CALM      30.28R
SOMERVILLE     CLOUDY    39  33  79 CALM      30.25F
ALLAIRE*       CLOUDY    39  30  70 SW5       30.27F
TOMS RIVER*    CLOUDY    36  32  87 CALM      30.29F

$$
PAZ043-044-047-054-055-060>062-066>071-190600-
EASTERN PENNSYLVANIA

CITY           SKY/WX    TMP DP  RH WIND       PRES   REMARKS
PHILADELPHIA   CLOUDY    45  37  73 S10       30.28F
NORTH PHILA    CLOUDY    43  35  73 CALM      30.29F
BLUE BELL      CLOUDY    45  37  76 CALM      30.26F
DOYLESTOWN     CLOUDY    40  36  86 CALM      30.26S
QUAKERTOWN*    CLOUDY    41  34  75 CALM      30.26S
POTTSTOWN      CLOUDY    45  33  63 CALM      30.28S
LANCASTER      CLOUDY    44  31  60 CALM      30.26S
COATESVILLE    CLOUDY    43  36  75 CALM      30.26F
READING        CLOUDY    46  31  55 CALM      30.25F
ALLENTOWN      CLOUDY    46  31  55 W3        30.26S
MOUNT POCONO   CLOUDY    41  30  65 W10       30.21F
HAZLETON       CLOUDY    37  32  81 CALM      30.26S
WILKES BARRE   MOCLDY    42  31  64 CALM      30.23F

$$
DEZALL-MDZ008-012-015-019-020-190600-
DELAWARE AND EASTERN MARYLAND

CITY           SKY/WX    TMP DP  RH WIND       PRES   REMARKS
WILMINGTON     CLOUDY    44  39  82 CALM      30.28F
DOVER          CLOUDY    41  41 100 SE2       30.25S
GEORGETOWN     CLOUDY    43  39  86 CALM      30.30R
EASTON         CLOUDY    46  42  85 CALM      30.33S
PATUXENT       CLOUDY    46  40  79 S3        30.29F
OCEAN CITY     CLOUDY    44  39  82 MISG      30.31R
WALLOPS ISLAND CLOUDY    45  41  86 E6        30.30F
CAMBRIDGE      CLOUDY    45  39  81 CALM      30.29F
SALISBURY      CLOUDY    44  39  82 CALM      30.30S

$$
PAZ001-021-NYZ056-072-MDZ011-DCZ001-190600-
OTHER NEARBY LOCATIONS

CITY           SKY/WX    TMP DP  RH WIND       PRES   REMARKS
HARRISBURG     CLOUDY    47  35  63 SE5       30.25F
STATE COLLEGE  CLOUDY    48  30  50 W6        30.24R
WILLIAMSPORT   CLOUDY    41  33  73 NW3       30.25R
BINGHAMTON     PTCLDY    43  31  62 NW3       30.21S
NEW YORK CITY  CLOUDY    42  31  64 W5        30.29S
BALTIMORE      CLOUDY    42  36  79 CALM      30.28R
WASHINGTON DC  CLOUDY    49  37  63 SW5       30.30R

$$



USA.gov is the U.S. government's official web portal to all federal, state and local government web resources and services.